Regional Weather Roundup
Issued by NWS Wakefield, VA

Home | Current Version | Previous Version | Text Only | Print | Product List | Glossary Off
Versions: 1 2 3 4 5 6 7 8 9 10 11 12 13 14 15 16 17 18 19 20 21 22 23 24 25 26 27 28 29 30 31 32 33 34 35 36 37 38 39 40 41 42 43 44 45 46 47 48 49 50

000
ASUS41 KAKQ 301910
RWRAKQ

REGIONAL WEATHER ROUNDUP
NATIONAL WEATHER SERVICE WAKEFIELD VA
300 PM EDT TUE SEP 30 2014

Note: "fair" indicates few or no clouds below 12,000 feet with no
significant weather and/or obstructions to visibility. * = Denotes
station may not report precipitation (e.g., rain,snow,etc.),
thunder or fog.

VAZ042-051-052>054-056-302000-
NORTHERN VIRGINIA

CITY           SKY/WX    TMP DP  RH WIND       PRES   REMARKS
WASH NATIONAL  MOSUNNY   75  60  59 VRB3      29.89F
DULLES         PTSUNNY   69  61  75 SE3       29.89F
FORT BELVOIR   SUNNY     72  61  67 VRB2      29.89F
QUANTICO       MOSUNNY   71  61  70 S6        29.89F
FREDERICKSBRG* PTSUNNY   73  62  68 CALM      29.88F
STAFFORD*      MOSUNNY   72  63  72 SE6       29.93F
WARRENTON      CLOUDY    71  66  85 CALM      29.89F
CULPEPER*      CLOUDY    70  63  78 CALM      29.90F
MANASSAS*      CLOUDY    70  63  78 CALM      29.90F
LEESBURG*      PTSUNNY   73  64  73 S5        29.90F
WINCHESTER     LGT RAIN  72  61  68 SE12      29.87S
FRONT ROYAL*   PTCLDY    72  63  73 E12       29.85F
LURAY*         PTCLDY    86  59  39 E10       29.84F
$$

VAZ048-049-060>072-079>083-302000-
CENTRAL AND SOUTH CENTRAL VIRGINIA...AND NORTH CENTRAL NORTH CAROLINA

CITY           SKY/WX    TMP DP  RH WIND       PRES   REMARKS
RICHMOND       PTSUNNY   73  62  68 CALM      29.89F
CHESTERFIELD*  CLOUDY   N/A N/A N/A CALM      29.90F
PETERSBURG*    CLOUDY    71  61  69 CALM      29.90S
HANOVER        CLOUDY    72  62  71 VRB5      29.91F
TAPPAHANNOCK*  SUNNY     74  60  61 S3        29.90F
CHARLOTTSVILLE CLOUDY    69  62  78 CALM      29.89F
ORANGE*        CLOUDY    70  61  73 SE6       29.91F
LOUISA*        CLOUDY    68  63  83 S3        29.89F
FARMVILLE*     CLOUDY    72  61  68 CALM      29.88F
CREWE*         CLOUDY    70  62  75 CALM      29.89F
FORT PICKETT*  CLOUDY    71  64  76 CALM      29.89F
LUNENBURG*     MOCLDY   -28 -33  77 N3        29.89F
SOUTH HILL*    PTSUNNY   72  66  83 N3        29.94S
LAWRENCEVILLE* CLOUDY    71  64  79 CALM      29.88F
ROANOKE RAPIDS CLOUDY    68  63  83 NE5       29.89S
RALEIGH        PTSUNNY   72  63  73 CALM      29.89F
$$

VAZ088>098-302000-
SOUTHEAST VIRGINIA

CITY           SKY/WX    TMP DP  RH WIND       PRES   REMARKS
NORFOLK        SUNNY     74  63  68 N7        29.87F
VIRGINIA BEACH MOSUNNY   77  60  55 NE10      29.86F
NORFOLK NAVAL  MOSUNNY   76  63  64 N9        29.88F
WEST POINT*    MOSUNNY   74  61  64 NW3       29.90F
NEWPORT NEWS   LGT RAIN  77  62  59 SE3       29.87F
LANGLEY AFB    SUNNY     75  62  63 NE8       29.88F
FORT EUSTIS    MOSUNNY   75  75  99 NW6       29.86F
WILLIAMSBURG*  SUNNY     77  64  65 CALM      29.88F
HR EXEC AP*    PTCLDY    79  64  61 N6        29.88F
FRANKLIN*      SUNNY     75  63  64 NW3       29.87F
WAKEFIELD      MOSUNNY   76  63  64 CALM      29.87F
$$

VAZ020-022-025-037-045-302000-
WEST CENTRAL AND SOUTHWEST VIRGINIA

CITY           SKY/WX    TMP DP  RH WIND       PRES   REMARKS
STAUNTON*      MOSUNNY   81  47  31 E5        29.88F
HOT SPRINGS VA MOSUNNY   67  33  28 W3        30.00F
LYNCHBURG      MOSUNNY   75  61  61 VRB3      29.89F
DANVILLE       MOSUNNY   79  64  60 VRB3      29.88F
SOUTH BOSTON*  NOT AVBL
MARTINSVILLE   MOSUNNY   83  60  46 SW3       29.90F
ROANOKE        PTSUNNY   81  53  37 N5        29.89F
BLACKSBURG     MOSUNNY   73  57  56 CALM      29.95F
DUBLIN*        PTSUNNY   76  60  56 CALM      29.94F
MARION*        PTSUNNY   75  56  50 W8        29.98F
HILLSVILLE*    MOSUNNY   73  55  52 NW6       29.96F
RICHLANDS*     PTCLDY    74  53  47 NW3       29.98F
WISE*          SUNNY     75  46  35 NW6       29.99F
ABINGDON*      SUNNY     77  55  46 NW7       29.95F
$$

MDZ021>025-VAZ099-100-302000-
SOUTHERN MARYLAND AND THE DELMARVA PENINSULA

CITY           SKY/WX    TMP DP  RH WIND       PRES   REMARKS
PATUXENT RIVER MOSUNNY   74  60  61 SE5       29.88F
BAY BRIDGE APT   N/A     72  61  68 W5        29.89F
LEONARDTOWN    SUNNY     73  59  60 E5        29.90F
DOVER          MOSUNNY   73  59  61 VRB5      29.88F
GEORGETOWN     MOSUNNY   76  59  55 E13G20    29.89F
EASTON         PTSUNNY   79  59  50 CALM      29.92F
CAMBRIDGE      MOSUNNY   79  59  50 E3        29.87F
SALISBURY      PTSUNNY   80  61  52 NE8       29.87F
OCEAN CITY     MOSUNNY   73  64  73 E8        29.89F
WALLOPS ISLAND SUNNY     75  64  68 E12       29.88F
ACCOMACK*      PTSUNNY   73  63  68 E5        29.87F
$$

NCZ012>017-030>032-302000-
EASTERN NORTH CAROLINA

CITY           SKY/WX    TMP DP  RH WIND       PRES   REMARKS
ELIZABETH CITY SUNNY     78  62  57 N6        29.85F
AHOSKIE*       SUNNY     74  62  68 N5        29.87F
EDENTON*       PTSUNNY   75  65  70 S6        29.85F
CURRITUCK*     SUNNY     75  60  58 NE9       29.87F
KILL DEVIL HLS SUNNY     74  63  67 N6        29.84F
MANTEO         MOSUNNY   74  63  67 N10       29.85F
CAPE HATTERAS  SUNNY     73  65  75 NE12G18   29.83F
TARBORO*       PTCLDY    76  65  68 N3        29.88S
GOLDSBORO      MOSUNNY   78  68  70 CALM      29.84F
WASHINGTON     MOSUNNY   78  63  60 NE3       29.85F
GREENVILLE     MOSUNNY   79  63  57 CALM      29.88F
NEW BERN       SUNNY     81  63  54 NE7       29.85F
WILMINGTON     PTSUNNY   82  65  56 N9        29.83F
$$

VAZ048-302000-
ELSEWHERE

CITY           SKY/WX    TMP DP  RH WIND       PRES   REMARKS
HARRISBURG PA  CLOUDY    69  61  75 NW8       29.88F
BALTIMORE      MOSUNNY   75  62  64 E8        29.87F
ANNAPOLIS      SUNNY     74  59  59 SE5       29.89F
ANDREWS AFB    PTSUNNY   75  61  61 SE6       29.88F
WILMINGTON DE  SUNNY     75  60  59 S5        29.90F
PHILADELPHIA   MOSUNNY   78  55  44 S6        29.89F
WILDWOOD NJ*   SUNNY     73  57  56 E10       29.91S
ATLANTIC CITY  SUNNY     73  58  59 E12       29.90F
HENDERSON NC   CLOUDY   N/A N/A N/A NE5       29.89F
GREENSBORO     MOSUNNY   78  62  57 N3        29.88F
ROCKY MOUNT    MOSUNNY   74  64  71 N7        29.88F
FAYETTEVILLE   SUNNY     80  63  55 VRB6      29.85F
CHARLOTTE      MOSUNNY   81  58  45 CALM      29.89F
$$

VAZ100-302000-
MARINE

STATION/POSITION TIME  TEMP    WIND        PRES    WAVE   SWELL
                       AIR SEA DIR/SP/G            HT/PER HT/PER
                 (UTC) (F)     (DEG/KT/KT) (MB)    (FT/S) (FT/S)
44066 TX TWR #4  1900   67 69   90/  8/ 10 1012.3F   2/ 4   2/15
CAPE MAY NJ      1900   71 74   90/  5/ 11 1012.0S
LEWES DE         1900   70 71  100/  8/ 10 1012.1F
15NM E FENWICK I 1900   69 71              1011.9F   2/14
OCEAN-CITY-INLET 1900   71 71   80/  6/ 10 1011.8F
WACHAPREAGUE VA  1900   71 74   80/  9/ 11 1011.6F
THOMAS POINT MD  1900   71 73  200/  2/  3 1013.1F
GOOSES REEF MD   1900   71      10/  2/  4 1012.8S
COVE POINT MD    1900   69     180/  6/  6 1012.1S
SOLOMONS ISLAND  1900      73                N/A
BISHOPS HEAD MD  1900   70 77  250/  7/  8 1011.6S
PINEY POINT MD   1900          170/  4/  4   N/A
POTOMAC MD       1900   71      CALM  /  2 1011.6F
CAMBRIDGE MD     1900   74 71  360/  3/  3 1011.5S
LEWISETTA VA     1900   69 71   70/  4/  5 1011.7F
RAPPAHANNOCK LGT 1900          320/  7/  8 1012.2F
STINGRAY PT      1900   70      20/  4/  4   N/A
YORK RVR RNG VA  1900   73      CALM  /  2 1011.4S
YORKTOWN VA      1900   71 73   80/  5/  6 1011.5S
JAMESTOWN VA     1900   70     260/  2/  2   N/A
DOMINION TERM VA 1900   71      90/  7/  8 1011.6F
KIPTOPEKE VA     1900      76  330/  6/  9   N/A
CHES BAY BRIDGE  1900   70 72   20/  5/  6 1011.1F
CHESAPEAKE LGHT  1800   70      40/ 10/ 11 1012.4F
WILLOUBY STN VA  1900   70      60/  5/  6 1010.3F
S CRANEY ISL VA  1900          330/  5/  7 1011.1F
CAPE HENRY BUOY  1900      74                N/A     2/14   2/14
1ST LANDING BUOY 1900   72      20/  4/  6 1011.3F
CAPE CHARLES BUO 1900      73                N/A     2/14   2/14
OFFSHORE WE BUOY 1900      73                N/A     2/ 8   2/ 8
64NM E OF VA BCH 1900   70 72   40/  8/ 10 1010.7F   2/ 8   2/ 8
DUCK PIER NC     1900   71 73   20/  9/ 11 1010.3F
44100 DUCK FRF   1900      73                N/A     2/14   2/14
44056 DUCK FRF   1900                        N/A     2/14
OREGON INLET NC  1900   73 73   20/ 10/ 15 1010.7S
HATTERAS NC      1900   72 74   20/ 14/ 16 1010.7F
DIAMOND SHLS NC  1900   74     350/ 16/ 17 1009.6F   4/ 7   2/ 8
CAPE LOOKOUT NC  1900   74      40/ 13/ 15 1009.9F
$$



USA.gov is the U.S. government's official web portal to all federal, state and local government web resources and services.